Temp
-13 -13 -13 -13 -14 -14 -14 -14 -14 -15 -15 -15 -16 -16 -17 -18 -18 -18 -18 -18 -18 -19 -19 -19 -19 -19 -19 -19 -19 -19 -19 -19 -19 -19 -19 -19 -19 -19 -19 -18 -17 -18 -18 -17
-13 -13 -13 -14 -14 -14 -15 -15 -15 -15 -16 -16 -17 -17 -18 -18 -18 -19 -19 -19 -19 -19 -19 -20 -20 -20 -19 -19 -19 -19 -20 -20 -20 -20 -19 -19 -19 -19 -19 -19 -18 -18 -18 -18
-14 -14 -14 -14 -15 -15 -15 -16 -16 -16 -16 -17 -17 -18 -18 -18 -19 -19 -19 -20 -20 -20 -20 -20 -20 -20 -20 -20 -20 -20 -20 -20 -20 -20 -20 -20 -20 -20 -19 -19 -19 -18 -18 -18
-14 -14 -14 -15 -15 -16 -16 -17 -17 -17 -17 -18 -18 -18 -18 -19 -19 -20 -20 -20 -20 -20 -20 -21 -21 -21 -21 -21 -21 -20 -20 -20 -21 -20 -20 -20 -20 -20 -20 -19 -19 -19 -19 -18
-14 -15 -15 -16 -16 -17 -17 -18 -18 -18 -18 -18 -19 -19 -19 -20 -20 -21 -21 -21 -21 -21 -21 -22 -22 -22 -22 -22 -22 -21 -21 -21 -21 -21 -21 -21 -21 -20 -20 -20 -20 -20 -19 -19
-15 -15 -16 -17 -17 -17 -18 -18 -18 -19 -19 -19 -19 -19 -20 -21 -21 -21 -21 -21 -22 -22 -22 -22 -23 -23 -24 -24 -23 -23 -22 -22 -22 -22 -22 -21 -21 -21 -21 -21 -20 -20 -20 -19
-15 -16 -17 -17 -18 -18 -19 -19 -19 -19 -19 -19 -20 -20 -22 -22 -23 -22 -22 -22 -22 -23 -23 -23 -24 -24 -25 -25 -25 -24 -24 -24 -24 -23 -23 -22 -22 -22 -21 -21 -21 -21 -20 -20
-16 -17 -18 -18 -19 -19 -19 -20 -20 -20 -20 -19 -21 -21 -22 -22 -23 -23 -23 -24 -24 -24 -24 -24 -25 -25 -25 -26 -26 -26 -26 -26 -25 -24 -24 -23 -23 -22 -22 -22 -22 -21 -21 -21
-17 -17 -18 -19 -19 -20 -20 -20 -20 -21 -20 -20 -21 -22 -22 -23 -24 -24 -25 -25 -25 -25 -26 -26 -26 -26 -26 -27 -27 -28 -27 -27 -26 -25 -25 -24 -24 -23 -23 -22 -22 -22 -21 -21
-18 -18 -19 -19 -20 -20 -20 -21 -21 -21 -21 -22 -21 -23 -23 -24 -25 -25 -25 -25 -26 -27 -28 -28 -28 -28 -28 -28 -28 -29 -28 -28 -27 -27 -26 -26 -25 -24 -24 -23 -23 -22 -22 -21
-19 -19 -19 -20 -20 -20 -21 -21 -22 -22 -23 -23 -23 -22 -25 -25 -25 -26 -26 -27 -28 -29 -29 -29 -29 -29 -29 -29 -29 -29 -28 -28 -28 -28 -27 -27 -27 -27 -26 -25 -24 -23 -23 -22
-19 -19 -20 -21 -21 -21 -21 -22 -22 -23 -23 -24 -24 -23 -25 -26 -26 -27 -27 -29 -30 -30 -30 -30 -30 -30 -30 -30 -30 -29 -29 -28 -28 -27 -28 -27 -27 -27 -27 -26 -25 -25 -24 -23
-19 -20 -21 -21 -21 -21 -22 -23 -23 -24 -24 -24 -24 -25 -26 -26 -26 -28 -29 -30 -30 -30 -31 -31 -31 -31 -31 -31 -30 -30 -29 -29 -29 -28 -28 -27 -27 -27 -27 -26 -26 -25 -25 -24
-20 -21 -21 -22 -22 -22 -23 -23 -24 -24 -24 -24 -25 -25 -25 -26 -27 -28 -29 -30 -31 -31 -31 -31 -32 -32 -31 -31 -31 -30 -30 -29 -29 -28 -28 -28 -28 -27 -27 -27 -27 -26 -26 -26
-21 -21 -22 -22 -22 -23 -23 -24 -24 -24 -25 -25 -25 -25 -26 -27 -27 -28 -29 -30 -31 -32 -32 -32 -32 -33 -32 -32 -32 -31 -31 -30 -29 -29 -29 -29 -28 -28 -28 -28 -27 -27 -26 -26
-22 -22 -22 -22 -23 -23 -23 -24 -24 -24 -25 -25 -25 -25 -27 -27 -28 -29 -29 -30 -30 -31 -32 -33 -33 -33 -33 -33 -33 -32 -32 -31 -31 -30 -29 -29 -28 -28 -28 -28 -28 -27 -27 -27
-22 -22 -23 -22 -23 -24 -24 -24 -25 -25 -25 -25 -25 -26 -27 -28 -28 -28 -29 -29 -29 -30 -31 -32 -33 -34 -33 -34 -33 -33 -33 -33 -32 -31 -31 -30 -29 -29 -29 -28 -28 -28 -28 -27
-23 -23 -23 -23 -24 -24 -24 -25 -25 -25 -25 -25 -26 -27 -28 -28 -28 -28 -28 -28 -29 -30 -30 -31 -32 -33 -34 -34 -34 -34 -33 -33 -33 -32 -31 -31 -31 -30 -30 -29 -29 -28 -28 -28
-23 -23 -24 -24 -24 -24 -24 -25 -25 -25 -25 -25 -27 -27 -28 -28 -28 -28 -28 -28 -29 -29 -29 -30 -32 -32 -33 -34 -34 -34 -34 -34 -34 -33 -33 -32 -31 -31 -30 -30 -30 -29 -29 -28
-23 -23 -24 -24 -25 -24 -24 -25 -25 -25 -25 -26 -27 -27 -28 -28 -28 -28 -28 -29 -29 -29 -29 -30 -30 -31 -32 -33 -34 -35 -35 -35 -35 -34 -34 -33 -32 -32 -31 -30 -30 -30 -29 -29
-24 -24 -24 -25 -25 -24 -25 -25 -25 -25 -26 -26 -27 -28 -28 -28 -28 -28 -28 -28 -29 -29 -29 -29 -30 -30 -31 -32 -32 -33 -34 -35 -35 -35 -34 -34 -33 -32 -32 -31 -31 -30 -30 -29
-24 -24 -24 -25 -25 -24 -25 -26 -26 -26 -26 -27 -28 -28 -28 -28 -28 -28 -29 -29 -29 -29 -29 -29 -29 -30 -30 -30 -31 -32 -33 -34 -35 -35 -35 -34 -33 -33 -32 -31 -31 -31 -30 -30
-24 -24 -25 -25 -25 -25 -25 -26 -26 -26 -27 -27 -28 -28 -28 -28 -28 -29 -29 -29 -29 -29 -29 -30 -30 -30 -30 -30 -30 -31 -32 -32 -33 -35 -35 -35 -34 -33 -33 -32 -32 -31 -31 -30
-24 -24 -25 -25 -24 -25 -26 -26 -26 -27 -27 -28 -28 -28 -28 -28 -29 -29 -29 -29 -29 -29 -30 -30 -30 -30 -30 -30 -30 -30 -31 -32 -32 -33 -34 -34 -34 -34 -33 -33 -32 -31 -31 -31
-24 -25 -25 -25 -25 -25 -26 -26 -26 -27 -28 -28 -28 -28 -28 -28 -29 -29 -29 -29 -29 -30 -30 -30 -30 -30 -31 -31 -31 -31 -31 -31 -32 -32 -33 -33 -33 -34 -33 -33 -32 -32 -32 -31
-25 -26 -25 -25 -25 -26 -26 -26 -27 -27 -28 -28 -28 -28 -28 -29 -29 -29 -29 -29 -29 -30 -30 -30 -30 -31 -31 -32 -32 -32 -32 -31 -31 -32 -32 -32 -32 -33 -33 -33 -33 -32 -32 -32
Height
5781 5780 5776 5774 5772 5769 5767 5764 5761 5756 5752 5748 5745 5742 5739 5735 5730 5724 5720 5718 5712 5708 5702 5699 5696 5694 5692 5690 5687 5685 5683 5682 5681 5680 5678 5677 5677 5677 5678 5679 5682 5685 5687 5690
5775 5772 5769 5767 5764 5762 5759 5756 5752 5748 5744 5739 5737 5733 5730 5726 5722 5716 5711 5707 5701 5696 5691 5685 5682 5681 5679 5678 5677 5674 5673 5672 5672 5671 5670 5668 5667 5669 5669 5671 5673 5676 5679 5681
5767 5765 5761 5759 5756 5753 5750 5747 5743 5739 5736 5732 5729 5724 5721 5718 5712 5705 5700 5695 5690 5683 5678 5674 5672 5670 5668 5666 5664 5663 5661 5661 5661 5661 5661 5659 5659 5660 5661 5663 5664 5667 5669 5672
5760 5756 5753 5750 5747 5745 5742 5738 5733 5729 5726 5724 5721 5714 5708 5704 5698 5695 5690 5684 5678 5673 5667 5662 5659 5657 5655 5654 5652 5651 5649 5649 5649 5649 5650 5650 5649 5649 5651 5653 5655 5657 5659 5662
5752 5748 5745 5742 5739 5736 5734 5729 5725 5721 5717 5714 5710 5703 5699 5691 5689 5685 5678 5672 5667 5662 5657 5652 5648 5645 5642 5639 5638 5637 5636 5636 5636 5638 5639 5639 5639 5640 5641 5643 5644 5647 5649 5652
5742 5739 5736 5734 5731 5727 5724 5721 5717 5713 5709 5705 5700 5693 5689 5680 5678 5673 5668 5663 5658 5652 5647 5641 5636 5631 5628 5626 5623 5622 5621 5621 5623 5624 5626 5628 5629 5630 5631 5633 5636 5637 5639 5642
5734 5731 5728 5725 5722 5718 5714 5711 5708 5705 5701 5696 5689 5682 5676 5671 5664 5662 5658 5651 5645 5641 5637 5632 5625 5619 5615 5612 5611 5609 5607 5607 5608 5611 5613 5615 5618 5619 5620 5622 5625 5628 5630 5633
5724 5722 5720 5718 5715 5710 5706 5703 5701 5695 5692 5687 5681 5673 5668 5663 5655 5648 5643 5640 5634 5630 5627 5623 5616 5609 5603 5598 5596 5595 5595 5595 5595 5597 5599 5602 5605 5608 5610 5613 5615 5618 5620 5623
5716 5714 5712 5710 5705 5703 5698 5695 5692 5687 5682 5676 5673 5663 5660 5652 5646 5635 5629 5624 5620 5616 5612 5608 5601 5595 5589 5586 5584 5583 5583 5583 5584 5585 5586 5588 5592 5595 5598 5601 5604 5608 5610 5612
5707 5705 5704 5701 5697 5693 5689 5687 5683 5676 5669 5665 5664 5654 5648 5642 5632 5624 5614 5607 5602 5594 5589 5586 5581 5576 5573 5571 5571 5571 5571 5573 5574 5574 5576 5577 5580 5583 5585 5589 5592 5595 5599 5602
5698 5698 5697 5693 5689 5684 5682 5678 5673 5667 5659 5652 5649 5649 5638 5625 5616 5606 5600 5592 5583 5576 5570 5567 5565 5562 5559 5559 5559 5559 5561 5562 5563 5564 5565 5565 5568 5570 5574 5576 5580 5584 5588 5591
5690 5689 5688 5685 5680 5676 5674 5670 5665 5658 5652 5644 5634 5634 5629 5616 5603 5592 5585 5575 5569 5562 5556 5552 5550 5547 5546 5545 5545 5544 5547 5548 5549 5549 5550 5553 5556 5558 5561 5565 5568 5571 5575 5579
5683 5683 5679 5677 5674 5669 5665 5661 5655 5648 5641 5639 5626 5621 5610 5603 5594 5582 5570 5563 5555 5548 5542 5537 5536 5534 5532 5532 5531 5531 5533 5534 5535 5536 5538 5541 5544 5548 5551 5554 5557 5560 5562 5566
5675 5674 5671 5669 5665 5660 5656 5652 5646 5639 5632 5625 5622 5607 5603 5592 5581 5573 5563 5552 5541 5533 5530 5525 5520 5519 5518 5516 5515 5516 5516 5516 5518 5521 5524 5527 5531 5534 5538 5542 5545 5548 5551 5555
5665 5665 5663 5659 5656 5652 5648 5643 5637 5630 5621 5612 5609 5600 5588 5577 5570 5562 5553 5542 5530 5522 5517 5513 5508 5505 5503 5500 5500 5499 5500 5499 5504 5507 5510 5513 5517 5521 5525 5528 5532 5535 5539 5542
5656 5655 5653 5650 5646 5643 5640 5635 5629 5621 5613 5606 5596 5588 5578 5569 5562 5555 5545 5534 5523 5515 5506 5501 5497 5494 5490 5487 5485 5485 5485 5487 5489 5492 5496 5499 5502 5505 5510 5515 5519 5523 5526 5530
5647 5645 5643 5642 5639 5634 5632 5627 5620 5614 5606 5598 5588 5578 5569 5564 5558 5550 5540 5529 5518 5509 5500 5493 5487 5482 5477 5474 5471 5470 5469 5470 5472 5475 5479 5482 5486 5490 5493 5498 5503 5508 5513 5517
5637 5636 5634 5632 5629 5624 5621 5615 5609 5603 5599 5589 5579 5569 5563 5558 5551 5543 5532 5521 5511 5502 5494 5486 5478 5472 5467 5462 5458 5455 5455 5456 5457 5459 5463 5466 5469 5473 5477 5481 5486 5491 5497 5502
5628 5627 5624 5622 5619 5615 5611 5604 5599 5593 5591 5580 5571 5562 5557 5550 5542 5534 5523 5513 5504 5495 5487 5480 5471 5463 5456 5451 5446 5442 5439 5439 5440 5443 5446 5450 5454 5457 5461 5466 5470 5475 5480 5486
5618 5617 5615 5613 5608 5603 5600 5593 5588 5583 5580 5571 5563 5557 5552 5545 5536 5527 5517 5507 5498 5488 5480 5473 5465 5456 5448 5441 5434 5427 5423 5421 5422 5424 5428 5432 5437 5442 5446 5451 5456 5460 5466 5471
5608 5606 5604 5601 5597 5595 5590 5584 5578 5573 5570 5561 5554 5550 5545 5538 5530 5523 5513 5504 5495 5487 5477 5467 5459 5450 5440 5431 5423 5415 5408 5403 5404 5406 5410 5415 5420 5425 5431 5436 5441 5446 5451 5457
5598 5596 5595 5590 5587 5583 5581 5574 5570 5564 5557 5552 5548 5544 5538 5531 5523 5515 5506 5498 5490 5482 5473 5464 5454 5445 5436 5427 5418 5409 5400 5392 5388 5389 5392 5396 5401 5407 5414 5420 5425 5430 5436 5442
5585 5585 5584 5582 5578 5572 5568 5564 5559 5554 5548 5545 5541 5536 5531 5523 5515 5507 5499 5492 5484 5476 5468 5459 5451 5441 5432 5423 5414 5406 5396 5388 5382 5378 5377 5380 5385 5390 5396 5402 5408 5414 5419 5425
5574 5574 5572 5570 5569 5563 5558 5555 5550 5544 5539 5537 5533 5528 5522 5514 5507 5500 5493 5485 5478 5470 5462 5453 5445 5436 5427 5419 5410 5402 5394 5386 5379 5374 5370 5367 5368 5372 5378 5384 5390 5395 5401 5406
5565 5562 5560 5560 5557 5552 5549 5544 5540 5535 5533 5530 5525 5520 5514 5506 5500 5493 5486 5479 5472 5464 5456 5448 5439 5430 5421 5412 5404 5396 5389 5382 5376 5370 5366 5363 5360 5359 5360 5364 5370 5376 5381 5387
5556 5551 5549 5549 5545 5541 5540 5535 5530 5528 5526 5521 5516 5511 5505 5499 5493 5486 5479 5472 5465 5457 5449 5441 5432 5423 5414 5404 5396 5389 5383 5377 5371 5366 5361 5357 5354 5352 5350 5350 5351 5353 5359 5363
Wind_Speed
28 29 30 32 33 35 36 37 39 40 43 44 43 43 39 38 37 41 41 38 39 40 42 42 41 41 40 39 39 39 37 37 35 33 32 32 33 30 30 39 43 43 41 46
29 32 33 34 36 36 37 39 41 41 43 46 44 43 41 39 37 39 39 39 42 43 44 44 42 42 42 42 42 42 40 39 38 35 34 33 32 35 31 33 39 41 39 36
32 34 34 34 36 37 38 39 42 43 44 44 45 46 43 40 39 40 42 42 42 44 46 46 46 44 44 45 45 44 43 41 40 39 36 35 34 32 34 33 37 38 42 39
35 35 34 35 37 38 39 40 43 44 46 47 45 48 46 46 44 43 41 40 41 43 46 48 47 45 44 45 46 46 46 45 43 41 39 37 35 35 32 35 36 37 39 38
35 36 36 36 37 39 40 41 44 45 45 45 44 47 47 47 43 39 38 39 41 44 47 49 48 48 46 45 45 47 48 47 46 44 41 39 38 36 35 33 36 37 35 37
37 36 36 38 37 39 41 42 44 43 43 45 47 47 45 46 41 37 39 43 47 49 50 52 51 50 47 44 44 45 47 48 46 44 42 40 39 37 36 34 33 37 37 33
38 37 37 37 38 39 41 42 41 43 44 46 46 47 44 40 39 41 47 53 53 51 51 54 59 61 59 50 43 44 44 44 45 42 41 40 38 38 37 36 34 32 35 36
38 36 36 36 37 40 38 38 39 42 42 45 43 46 42 42 49 53 56 55 57 61 60 60 63 64 65 51 44 43 40 37 36 38 40 39 38 38 38 37 37 34 32 35
37 36 35 36 36 35 37 37 38 40 42 44 45 47 43 48 56 59 63 64 66 67 67 64 61 58 59 48 45 40 35 37 38 39 40 41 37 38 38 39 39 36 37 34
36 36 35 34 32 33 35 36 38 41 45 45 44 47 50 54 59 65 68 73 73 69 61 54 49 46 47 47 45 41 36 37 38 39 41 40 38 38 38 38 39 40 39 35
35 36 32 28 28 31 34 35 36 40 47 50 51 48 53 60 66 71 77 76 66 55 52 47 42 44 43 45 35 37 32 35 37 36 36 39 38 35 34 35 37 39 41 42
33 34 26 25 28 31 33 34 35 39 46 51 55 56 57 64 71 74 70 64 55 52 49 46 43 43 42 44 42 41 41 40 39 44 44 43 41 40 39 37 36 37 40 43
30 26 24 27 30 34 33 31 37 44 48 49 58 61 63 70 73 63 61 60 59 54 50 49 43 40 44 43 45 47 45 46 49 47 46 45 45 45 45 44 41 40 41 41
28 23 23 26 30 32 31 34 41 47 52 55 54 64 67 72 64 58 55 55 54 51 46 46 47 43 43 45 49 52 50 47 49 54 52 49 48 45 47 50 49 46 44 43
26 23 25 25 30 31 34 37 43 47 51 55 56 65 70 60 52 49 52 54 52 47 43 41 44 44 46 47 47 50 52 58 62 57 54 54 54 50 47 46 51 55 53 49
24 25 26 29 28 33 33 38 42 46 49 52 61 68 54 47 47 49 48 51 52 47 42 40 39 42 41 45 49 49 50 52 52 57 64 64 58 58 55 52 50 49 50 55
26 26 28 31 29 35 36 37 39 43 47 54 63 56 43 40 43 46 46 48 50 48 42 36 38 40 42 46 49 50 50 46 47 48 49 53 56 59 62 62 60 56 55 54
27 29 31 32 32 38 36 37 40 42 45 58 57 48 40 42 41 43 45 46 47 45 42 40 36 36 38 41 46 52 53 54 51 49 48 47 48 49 51 53 56 58 57 56
30 31 35 36 34 38 37 37 39 41 48 55 48 40 39 42 45 44 44 44 45 44 42 40 38 34 33 36 41 47 52 55 56 56 52 49 48 47 46 47 49 51 52 53
34 36 35 33 37 42 40 35 39 43 49 47 41 37 38 42 41 40 40 40 41 42 42 40 39 40 39 34 34 40 48 53 55 58 58 55 52 50 48 47 47 49 51 51
37 36 35 34 39 45 35 39 40 45 49 44 38 36 37 36 37 38 38 38 39 38 39 40 40 40 39 40 39 37 35 45 52 56 58 59 57 53 51 49 49 49 50 50
39 37 35 36 43 47 39 37 41 48 47 39 35 34 33 37 40 40 38 38 38 38 39 40 40 42 42 41 38 37 36 31 37 50 56 58 60 59 55 53 52 52 50 51
40 37 37 39 47 45 40 36 42 48 42 36 34 30 36 38 39 37 36 37 37 37 38 39 39 40 41 41 41 38 36 34 29 26 42 53 56 58 60 57 55 55 55 54
39 38 37 44 46 39 36 38 45 42 37 33 28 31 35 38 35 36 36 37 37 36 39 41 41 40 41 42 39 37 35 30 29 27 23 26 43 56 58 60 61 59 58 59
43 40 41 45 44 39 34 40 43 38 34 26 28 32 35 34 35 36 36 36 37 39 42 44 45 44 46 45 41 37 35 34 29 27 27 26 25 28 40 54 61 65 64 63
39 38 43 44 38 34 34 42 41 36 31 29 31 33 33 33 35 35 35 38 40 42 44 46 47 48 50 46 41 39 37 34 33 31 28 27 28 31 32 34 43 58 66 70
Wind_Direction
310 309 308 307 306 306 307 309 308 305 305 303 302 305 304 301 299 299 301 299 295 292 291 289 286 283 279 273 272 274 273 275 278 281 280 282 268 266 262 254 251 257 260 261
310 308 306 308 306 305 305 306 306 305 302 301 302 305 304 304 302 296 293 291 290 288 285 283 282 279 275 272 271 271 271 270 271 272 274 275 275 263 263 251 251 256 258 259
310 309 305 305 305 304 305 305 304 302 301 300 303 302 303 303 298 293 292 292 289 287 284 284 283 279 275 272 270 270 269 269 268 269 269 270 271 270 260 255 247 246 253 253
307 305 303 303 303 304 304 303 301 302 303 303 304 302 303 303 298 298 297 294 289 288 289 289 287 284 278 275 272 270 269 268 267 267 267 265 267 268 265 256 250 246 247 250
305 302 302 303 303 304 303 302 303 302 303 305 304 302 303 300 301 304 300 299 299 298 297 297 297 292 288 280 273 270 268 267 266 265 265 262 262 263 263 261 256 246 246 246
302 301 302 303 304 303 302 303 302 303 304 305 304 304 307 306 309 305 305 303 300 300 300 300 302 302 299 291 281 273 270 267 265 264 263 262 258 257 257 257 257 255 247 246
299 300 301 303 302 302 304 304 304 305 308 309 309 308 310 312 308 306 304 302 301 304 306 307 308 308 306 301 290 280 276 272 270 265 261 260 255 253 253 253 253 255 252 242
297 298 300 302 303 303 304 304 306 308 312 310 313 311 311 311 310 309 305 305 305 305 306 305 305 303 299 295 284 278 276 270 265 262 259 261 256 250 248 248 249 246 248 243
294 297 298 302 303 304 306 308 310 311 312 310 313 308 310 311 308 306 304 302 302 302 303 303 302 294 290 285 276 276 267 265 262 260 259 256 255 249 247 242 242 231 241 242
294 295 300 301 303 305 307 311 315 313 309 308 314 310 308 308 306 306 305 305 309 310 308 302 292 284 280 276 272 265 261 265 269 268 262 259 257 251 246 243 241 239 237 234
293 296 298 298 305 307 309 313 315 313 307 307 307 313 313 309 310 309 310 314 312 305 299 296 290 282 274 271 268 273 268 262 264 268 264 260 255 250 249 249 242 239 237 233
291 293 296 302 308 308 310 311 311 306 304 307 308 312 310 313 311 316 317 314 312 306 298 292 291 284 278 270 258 261 255 253 248 247 247 244 247 243 236 238 240 243 237 235
288 287 298 308 308 311 315 307 304 302 303 310 308 313 316 313 315 318 317 314 310 304 298 292 285 278 279 273 257 253 254 248 250 245 243 244 242 242 240 233 234 235 240 237
278 291 303 305 312 317 306 303 299 300 304 306 314 312 313 315 318 321 322 321 311 306 296 296 290 281 276 268 267 259 256 241 241 243 241 241 238 235 241 242 235 235 233 235
280 290 302 305 318 313 303 301 301 304 308 311 313 314 317 318 322 324 328 334 335 318 303 294 292 288 277 272 268 264 262 259 254 249 246 246 245 241 240 239 239 236 235 233
276 291 298 308 312 303 307 301 304 305 307 311 314 317 318 321 323 325 327 332 336 340 316 297 294 290 284 276 272 270 268 265 263 257 255 254 247 248 246 242 242 240 239 237
280 287 296 308 299 304 311 306 305 309 309 312 316 318 318 319 324 326 325 332 333 335 338 316 295 293 290 283 276 270 267 268 266 263 259 255 254 252 254 251 248 244 244 240
279 283 292 297 297 311 317 315 309 309 312 317 319 316 315 317 323 326 328 332 335 337 334 335 324 302 293 288 281 277 273 268 264 262 260 258 256 253 251 250 250 250 248 243
276 280 282 292 297 314 325 312 307 309 317 319 316 312 313 318 321 325 330 335 336 336 338 338 331 326 306 298 291 279 273 269 266 263 261 258 255 255 252 251 249 248 247 245
273 279 283 293 298 315 326 309 308 310 317 316 317 313 311 318 324 328 330 333 336 338 337 340 339 333 333 323 307 289 276 266 262 260 259 258 256 253 253 250 249 248 245 243
270 274 285 290 303 320 315 309 308 312 315 315 314 311 314 319 324 326 328 330 333 336 340 342 338 337 335 333 338 329 302 273 262 258 256 256 256 254 251 251 250 247 245 242
267 274 287 295 312 319 312 305 306 309 313 311 310 312 316 320 322 324 326 329 332 335 338 342 344 343 340 340 336 335 338 324 278 260 257 254 254 254 252 250 250 249 245 243
266 273 288 306 315 313 306 302 303 309 308 306 306 312 317 319 322 325 329 331 333 336 337 339 340 340 340 343 343 341 338 338 337 305 265 258 256 255 254 252 250 249 249 245
266 277 291 304 314 304 300 300 304 307 305 303 305 315 320 323 323 325 328 330 333 336 338 339 338 337 337 335 334 338 338 336 328 328 318 288 263 258 255 253 251 250 249 248
265 274 292 304 310 298 296 298 304 304 299 295 307 315 321 320 322 324 328 330 335 335 335 336 337 335 334 331 327 328 333 335 330 320 310 307 301 281 262 255 253 251 250 248
266 284 296 311 301 291 290 299 303 297 288 299 307 314 319 318 320 325 329 330 332 333 333 335 336 337 335 334 327 322 322 324 327 326 314 301 294 288 284 274 261 252 250 249